[[{"header":{"parameterUnit":"m.s-1","parameterCategory":1,"la1":30.2991,"la2":30.254,"lo1":-89.0895,"lo2":-89.0444,"dy":0.0017,"dx":0.0017,"nx":28,"ny":28,"refTime":"2024-07-06T03:00:00:Z","depth":0,"parameterNumber":2,"parameterNumberName":"U-component_of_WINDS"},"data":[0,0,0,0,0,0,0,0,0,0,0,0,0,0,0,0,0,0,0,0,0,0,0,0,0,0,0,0,0,0,0,0,0,0,0,0,0,0,0,0,0,0,0,0,0,0,0,0,0,0,0,0,0,0,0,0,0,0,1.2919,1.292,0,1.2971,1.2971,1.2972,1.2912,1.291,1.2908,1.2906,1.2963,1.2966,1.297,0,0,0,0,0,0,0,0,0,0,0,0,0,1.2774,1.2777,1.2919,1.292,1.292,1.2971,1.2971,1.2972,1.2913,1.291,1.2907,1.2905,1.2961,1.2966,1.297,0,0,0,0,0,0,0,0,0,0,0,0,0,1.2833,1.2778,1.2919,1.2897,1.2895,1.297,1.2971,1.2972,1.2913,1.291,1.2906,1.2903,1.296,1.2965,1.2971,1.3072,0,0,1.2987,1.299,0,0,0,0,0,0,0,0,1.2829,1.2838,1.2899,1.2898,1.2897,1.2931,1.2941,1.3006,1.2914,1.2907,1.2906,1.2902,1.2955,1.2961,1.2978,1.3074,1.3077,1.2988,1.2991,1.2993,1.2995,0,0,0,0,0,0,0,1.2825,1.2836,1.2939,1.29,1.2899,1.2886,1.289,1.2953,1.2949,1.2907,1.2903,1.2909,1.2954,1.2973,1.2979,1.3077,1.2988,1.2992,1.2996,1.2998,1.3262,1.3266,0,0,0,0,0,0,1.2823,1.2833,1.2938,1.2941,1.2854,1.2891,1.2896,1.2924,1.2948,1.2949,1.2912,1.2906,1.2965,1.2973,1.2981,1.3103,1.2993,1.2998,1.3001,1.3259,1.3263,1.3267,0,0,0,0,0,0,1.282,1.2833,1.2936,1.2886,1.2898,1.2897,1.2929,1.2927,1.2945,1.2952,1.2952,1.2932,1.2963,1.2973,1.305,1.3104,1.3001,1.3006,1.3254,1.326,1.3265,1.3346,0,0,0,0,0,0,1.2817,1.2833,1.287,1.2887,1.2901,1.3003,1.2932,1.293,1.2955,1.2947,1.2971,1.2972,1.2961,1.3042,1.3055,1.3109,1.301,1.3249,1.3257,1.3263,1.3339,1.3354,1.3367,0,0,0,0,0,1.2812,1.2891,1.2872,1.2885,1.2947,1.3006,1.3014,1.2999,1.2959,1.2997,1.3002,1.2971,1.3095,1.305,1.3065,1.3121,1.3246,1.3255,1.3263,1.3333,1.3351,1.3367,0,0,0,0,0,0,1.2881,1.2892,1.2872,1.2958,1.2981,1.2996,1.3043,1.3019,1.3055,1.3047,1.3028,1.3034,1.3116,1.3126,1.3076,1.3222,1.3164,1.3176,1.3213,1.323,1.3244,1.3241,1.3014,0,0,0,0,0,1.2906,1.2951,1.2959,1.3035,1.3048,1.3044,1.3069,1.3056,1.3079,1.3089,1.3099,1.3125,1.317,1.32,1.3242,1.334,1.3346,1.3386,1.34,1.3412,1.3423,1.3478,1.3497,1.3295,1.3295,1.3295,0,0,1.2958,1.297,1.3,1.305,1.3066,1.3116,1.3052,1.3107,1.3144,1.3098,1.3171,1.318,1.3208,1.3296,1.3335,1.3307,1.348,1.3422,1.3432,1.3436,1.3489,1.3508,1.3525,1.3301,1.33,1.3299,0,0,1.308,1.3093,1.3158,1.3176,1.3201,1.3198,1.3214,1.3233,1.3237,1.331,1.3277,1.3322,1.3399,1.3421,1.3442,1.3574,1.3548,1.3588,1.3663,1.3717,1.3733,1.3747,1.3797,1.3815,1.3599,1.3599,1.3599,0,1.3143,1.3215,1.3196,1.3253,1.3277,1.3236,1.3304,1.3323,1.3361,1.338,1.3347,1.3445,1.346,1.3554,1.3587,1.3604,1.3624,1.3586,1.3732,1.3746,1.3759,1.3806,1.3825,1.3604,1.3604,1.3603,1.3603,0,1.3292,1.3343,1.3393,1.343,1.346,1.3522,1.3514,1.3547,1.3531,1.3533,1.3609,1.3627,1.3672,1.3693,1.3679,1.3787,1.3769,1.3734,1.3676,1.3783,1.3828,1.3845,1.3611,1.3609,1.3608,1.3607,0,0,1.3459,1.3485,1.3505,1.3522,1.3548,1.3588,1.3649,1.3693,1.3723,1.3751,1.3804,1.3871,1.384,1.3864,1.3852,1.39,1.4007,1.386,1.386,1.3889,1.413,1.4158,1.4179,1.3989,1.3992,1.3995,1.4129,0,1.3583,1.3688,1.3674,1.3776,1.3824,1.3787,1.3841,1.3864,1.3868,1.3911,1.3914,1.3964,1.3917,1.3932,1.3977,1.3984,1.4056,1.3974,1.4041,1.4044,1.4037,1.4202,1.423,1.4356,1.4146,1.4149,1.4151,0,1.3741,1.3775,1.3882,1.3902,1.3922,1.3971,1.4011,1.4051,1.4078,1.4077,1.4105,1.4085,1.415,1.409,1.4181,1.4126,1.4152,1.416,1.4165,1.4172,1.4105,1.4216,1.4395,1.4415,1.4178,1.4175,1.4173,0,1.3855,1.3927,1.4001,1.4017,1.4042,1.4078,1.409,1.4113,1.4141,1.4177,1.4196,1.4239,1.4263,1.4298,1.4292,1.4248,1.4386,1.4324,1.4389,1.439,1.4421,1.442,1.461,1.4435,1.4434,1.4434,1.4434,0,1.3996,1.4064,1.4053,1.4099,1.4175,1.4158,1.4234,1.4242,1.4263,1.4312,1.4282,1.4329,1.4316,1.4363,1.4359,1.4436,1.4447,1.445,1.4449,1.4454,1.4454,1.4473,1.4465,1.4439,1.4438,1.4437,1.4436,0,1.4137,1.4132,1.4211,1.4228,1.4234,1.4289,1.4305,1.435,1.4351,1.4413,1.4426,1.4429,1.4483,1.4479,1.454,1.4538,1.4634,1.4621,1.4625,1.4623,1.4689,1.4684,1.49,1.4929,1.4733,1.4735,1.4736,0,1.4228,1.4279,1.4302,1.4332,1.4347,1.4395,1.4424,1.441,1.4442,1.4477,1.4518,1.4569,1.4609,1.4698,1.4706,1.4754,1.4743,1.4816,1.475,1.4755,1.4748,1.4746,1.4752,1.4829,1.4831,1.4833,1.4835,0,1.4392,1.4387,1.4428,1.447,1.4505,1.4537,1.4567,1.4593,1.4583,1.4621,1.4675,1.4706,1.4769,1.4821,1.4867,1.4882,1.4858,1.4855,1.4873,1.488,1.4881,1.4884,1.4663,1.485,1.4849,1.4848,1.4847,1.4846,1.4512,1.4557,1.458,1.4628,1.4649,1.4678,1.4721,1.4728,1.4772,1.4821,1.4811,1.4873,1.4901,1.496,1.4979,1.5029,1.5004,1.5029,1.5036,1.5043,1.5052,1.4872,1.5037,1.5037,1.5036,1.5036,1.5036,0,1.4676,1.469,1.4734,1.4776,1.4815,1.4787,1.4819,1.4854,1.4908,1.4935,1.4975,1.504,1.5091,1.5104,1.5154,1.5192,1.5182,1.5205,1.5204,1.5208,1.5071,1.5051,1.5212,1.5212,1.5212,1.5212,1.5212,1.5212,1.4766,1.4841,1.484,1.4926,1.4939,1.4999,1.502,1.5047,1.5069,1.5142,1.5184,1.5191,1.5214,1.5266,1.5312,1.5315,1.5336,1.5364,1.5363,1.5235,1.5217,1.5201,1.5182,1.5368,1.5369,1.5497,1.5498,1.5499]},{"header":{"parameterUnit":"m.s-1","parameterCategory":1,"la1":30.2991,"la2":30.254,"lo1":-89.0895,"lo2":-89.0444,"dy":0.0017,"dx":0.0017,"nx":28,"ny":28,"refTime":"2024-07-06T03:00:00:Z","depth":0,"parameterNumber":3,"parameterNumberName":"V-component_of_WINDS"},"data":[0,0,0,0,0,0,0,0,0,0,0,0,0,0,0,0,0,0,0,0,0,0,0,0,0,0,0,0,0,0,0,0,0,0,0,0,0,0,0,0,0,0,0,0,0,0,0,0,0,0,0,0,0,0,0,0,0,0,-1.0255,-1.0256,0,-1.0332,-1.0333,-1.0334,-1.0385,-1.0385,-1.0385,-1.0386,-1.0461,-1.0463,-1.0464,0,0,0,0,0,0,0,0,0,0,0,0,0,-1.0147,-1.0149,-1.0255,-1.0256,-1.0257,-1.0332,-1.0333,-1.0334,-1.0385,-1.0385,-1.0385,-1.0386,-1.0461,-1.0463,-1.0465,0,0,0,0,0,0,0,0,0,0,0,0,0,-1.0206,-1.0149,-1.0255,-1.0291,-1.0295,-1.0332,-1.0333,-1.0334,-1.0384,-1.0385,-1.0386,-1.0386,-1.046,-1.0462,-1.0465,-1.047,0,0,-1.0473,-1.0474,0,0,0,0,0,0,0,0,-1.0202,-1.021,-1.0285,-1.0289,-1.0293,-1.0349,-1.0323,-1.038,-1.0384,-1.035,-1.0386,-1.0386,-1.0423,-1.0429,-1.0442,-1.0474,-1.0477,-1.0473,-1.0474,-1.0475,-1.0476,0,0,0,0,0,0,0,-1.0198,-1.0207,-1.0285,-1.0286,-1.0291,-1.0302,-1.0311,-1.0334,-1.0383,-1.0353,-1.0357,-1.0366,-1.0426,-1.044,-1.0444,-1.0478,-1.0473,-1.0475,-1.0477,-1.0478,-1.0517,-1.0516,0,0,0,0,0,0,-1.0189,-1.0203,-1.0283,-1.0288,-1.0248,-1.0304,-1.0314,-1.0331,-1.0383,-1.0391,-1.0365,-1.0368,-1.0435,-1.0441,-1.0447,-1.0456,-1.0475,-1.0478,-1.0479,-1.0517,-1.0517,-1.0516,0,0,0,0,0,0,-1.0187,-1.0196,-1.028,-1.0246,-1.0258,-1.0305,-1.0324,-1.0332,-1.0346,-1.0392,-1.0401,-1.0371,-1.0436,-1.0444,-1.0464,-1.046,-1.0479,-1.0481,-1.0518,-1.0517,-1.0517,-1.0475,0,0,0,0,0,0,-1.0183,-1.0195,-1.0198,-1.0246,-1.026,-1.0297,-1.0324,-1.0333,-1.0351,-1.0355,-1.0399,-1.0407,-1.0437,-1.046,-1.0467,-1.0463,-1.0483,-1.0519,-1.0518,-1.0517,-1.0477,-1.0473,-1.0469,0,0,0,0,0,-1.0179,-1.0183,-1.0198,-1.0207,-1.0265,-1.0296,-1.0304,-1.0339,-1.035,-1.0353,-1.0383,-1.0406,-1.0459,-1.0462,-1.047,-1.0467,-1.0519,-1.0518,-1.0517,-1.0478,-1.0473,-1.0469,0,0,0,0,0,0,-1.0131,-1.019,-1.0207,-1.0227,-1.0256,-1.0305,-1.031,-1.0332,-1.0359,-1.0361,-1.0402,-1.0412,-1.0428,-1.045,-1.0452,-1.0474,-1.0492,-1.0492,-1.046,-1.0455,-1.0452,-1.0446,-1.0485,0,0,0,0,0,-1.0123,-1.0145,-1.0194,-1.0206,-1.022,-1.0262,-1.0277,-1.0302,-1.0333,-1.0346,-1.0377,-1.0406,-1.0429,-1.0443,-1.0468,-1.048,-1.049,-1.0482,-1.0478,-1.0475,-1.0474,-1.0482,-1.0478,-1.0513,-1.0513,-1.0513,0,0,-1.0106,-1.0141,-1.0152,-1.0197,-1.0223,-1.0243,-1.0273,-1.0293,-1.0308,-1.0349,-1.037,-1.0394,-1.0429,-1.0445,-1.0454,-1.0464,-1.0467,-1.0474,-1.0471,-1.0472,-1.048,-1.0477,-1.0474,-1.0512,-1.0512,-1.0512,0,0,-1.0086,-1.0114,-1.0128,-1.0153,-1.0192,-1.022,-1.0223,-1.0268,-1.0286,-1.0308,-1.0339,-1.0357,-1.0396,-1.042,-1.0437,-1.0424,-1.0446,-1.0431,-1.0411,-1.0417,-1.0414,-1.0412,-1.0407,-1.0404,-1.043,-1.043,-1.043,0,-1.0059,-1.0092,-1.0131,-1.015,-1.0168,-1.0207,-1.022,-1.0242,-1.0286,-1.0298,-1.0308,-1.0358,-1.0385,-1.0406,-1.0403,-1.0416,-1.042,-1.0426,-1.0412,-1.041,-1.0409,-1.0404,-1.0402,-1.0428,-1.0428,-1.0429,-1.0429,0,-1.0057,-1.008,-1.0085,-1.0128,-1.0147,-1.0163,-1.0202,-1.0217,-1.0239,-1.0266,-1.0287,-1.032,-1.0351,-1.0358,-1.038,-1.0383,-1.0388,-1.0404,-1.0423,-1.0403,-1.0399,-1.0397,-1.0425,-1.0426,-1.0426,-1.0427,0,0,-1.0009,-1.0073,-1.0074,-1.0094,-1.014,-1.0157,-1.0173,-1.0205,-1.0216,-1.0245,-1.0259,-1.0291,-1.0307,-1.0326,-1.0351,-1.0357,-1.0343,-1.0373,-1.0374,-1.0365,-1.0347,-1.0333,-1.0331,-1.0358,-1.0358,-1.0358,-1.0344,0,-0.9994,-1.0028,-1.0062,-1.0083,-1.0103,-1.014,-1.0154,-1.0183,-1.0208,-1.0227,-1.0254,-1.0276,-1.0296,-1.0308,-1.0315,-1.0343,-1.034,-1.0345,-1.037,-1.037,-1.036,-1.0329,-1.0315,-1.03,-1.0343,-1.0342,-1.0342,0,-0.9982,-1.001,-1.0033,-1.0076,-1.0086,-1.0098,-1.0129,-1.0148,-1.0181,-1.0199,-1.022,-1.0246,-1.0264,-1.028,-1.0304,-1.0307,-1.0319,-1.0334,-1.0334,-1.0337,-1.0355,-1.033,-1.0296,-1.0293,-1.034,-1.0341,-1.0341,0,-0.9943,-0.9987,-1.0006,-1.0021,-1.0073,-1.008,-1.0102,-1.0135,-1.0152,-1.0178,-1.0189,-1.0217,-1.0232,-1.0252,-1.0285,-1.0294,-1.0305,-1.0324,-1.0319,-1.0318,-1.0319,-1.0318,-1.0285,-1.0328,-1.0328,-1.0328,-1.0328,0,-0.9923,-0.9935,-0.9989,-1.0,-1.0014,-1.0054,-1.0066,-1.0091,-1.012,-1.0136,-1.0169,-1.0183,-1.0226,-1.0244,-1.027,-1.0285,-1.0292,-1.0305,-1.0311,-1.0302,-1.03,-1.031,-1.0311,-1.0327,-1.0327,-1.0327,-1.0328,0,-0.9882,-0.9919,-0.9941,-0.9988,-1.0,-1.0008,-1.0048,-1.006,-1.0086,-1.0106,-1.0113,-1.0154,-1.0177,-1.0212,-1.0246,-1.0263,-1.0273,-1.0285,-1.0262,-1.0266,-1.0258,-1.0258,-1.023,-1.0228,-1.0272,-1.0272,-1.0272,0,-0.9866,-0.9876,-0.9925,-0.9938,-0.9959,-0.998,-0.9997,-1.0036,-1.0052,-1.009,-1.0097,-1.0123,-1.0146,-1.0181,-1.0213,-1.0238,-1.025,-1.0238,-1.0254,-1.0243,-1.0248,-1.0247,-1.0248,-1.0234,-1.0233,-1.0233,-1.0232,0,-0.9834,-0.9852,-0.9876,-0.9906,-0.9926,-0.9951,-0.9978,-0.9986,-1.0031,-1.0047,-1.0072,-1.0089,-1.0124,-1.0149,-1.0179,-1.0199,-1.0222,-1.0227,-1.0227,-1.0217,-1.0203,-1.021,-1.0251,-1.0228,-1.0228,-1.0229,-1.0229,-1.0229,-0.9805,-0.9815,-0.9851,-0.9876,-0.99,-0.9924,-0.9938,-0.9966,-0.9988,-1.002,-1.0041,-1.0064,-1.0096,-1.0139,-1.0158,-1.0176,-1.0186,-1.0186,-1.0186,-1.0185,-1.0181,-1.0201,-1.0181,-1.0181,-1.0182,-1.0182,-1.0182,0,-0.9774,-0.9798,-0.9821,-0.9858,-0.9878,-0.99,-0.993,-0.9944,-0.9965,-0.9993,-1.0015,-1.0043,-1.0067,-1.0101,-1.0127,-1.0135,-1.0146,-1.014,-1.014,-1.0144,-1.0171,-1.0168,-1.0131,-1.0131,-1.0131,-1.0131,-1.0131,-1.0131,-0.976,-0.9778,-0.98,-0.983,-0.9855,-0.9879,-0.9894,-0.9916,-0.9939,-0.9969,-0.9989,-1.0012,-1.0042,-1.0071,-1.0093,-1.0103,-1.011,-1.0101,-1.0113,-1.0137,-1.0142,-1.0146,-1.0144,-1.0102,-1.0102,-1.0085,-1.0084,-1.0084]}]]